Theta_e
302 303 303 303 303 303 307 315 315 313 312 307 304 305 298 295 293 304 308 309 306 299 292 294 292 290 291 291 290 291 290 289 290 291 290 290 290 290 289 290 289 288 289 287 287 288 284 286 285 284 285 287 287 290 294 295 294 294 287 291 291 292 286 282 282 286 286 287 288 289 288 288 288 288 285 284 285 283 281 276 276 279 275 275 274 269 272
302 302 303 303 302 303 304 307 310 310 309 306 305 300 296 297 296 299 306 309 305 296 286 286 289 290 291 290 290 291 290 290 289 290 290 290 289 290 288 289 293 289 290 291 288 290 283 285 286 285 285 287 289 288 293 295 293 293 290 291 293 287 284 285 279 278 281 283 286 286 287 288 284 283 284 283 282 280 278 275 274 278 275 278 274 274 272
301 301 302 303 302 302 304 305 307 307 307 304 303 297 299 298 300 300 301 305 303 292 294 291 289 289 288 288 289 288 289 290 292 291 290 289 289 289 288 291 291 288 292 291 291 291 288 284 286 285 286 288 289 290 292 296 294 295 295 295 295 287 284 284 279 277 275 275 277 280 282 283 283 283 284 284 284 282 282 280 278 275 274 277 272 270 278
301 301 302 302 302 302 303 304 305 305 306 306 304 300 298 294 286 293 296 300 299 298 297 293 292 289 288 287 287 288 288 290 290 293 290 290 289 288 289 289 292 288 290 288 288 288 288 288 284 286 286 286 287 288 290 294 295 295 296 295 294 285 287 287 285 283 282 283 283 285 287 284 284 284 285 285 285 285 285 281 278 279 275 276 279 281 282
301 301 301 302 302 302 303 304 304 304 304 303 297 294 295 294 291 291 287 296 296 293 295 292 292 288 290 285 286 287 289 288 289 292 288 291 292 290 291 290 289 287 289 288 287 288 286 285 287 286 286 285 286 289 290 292 293 295 294 295 291 285 285 287 287 287 287 287 287 287 291 286 287 286 286 287 286 285 285 284 282 284 279 275 279 280 281
301 300 300 301 302 302 303 303 304 304 303 303 298 290 290 289 292 295 296 290 287 289 290 294 291 291 288 286 287 288 288 288 287 290 290 290 292 291 289 292 292 291 290 289 286 286 286 286 285 286 285 285 287 289 290 292 292 293 293 294 291 287 285 286 285 285 285 286 287 288 289 289 289 288 288 287 287 285 285 285 288 284 282 281 285 283 281
300 300 300 301 302 302 302 303 303 303 302 301 295 290 288 290 288 290 295 289 291 292 293 294 291 290 288 285 288 288 289 287 289 287 288 290 289 290 286 288 290 291 292 290 286 287 283 283 285 286 284 286 286 285 288 290 288 290 290 290 285 289 282 285 287 284 285 285 285 287 288 287 287 287 288 288 287 286 287 287 288 286 284 286 287 283 284
300 300 300 301 302 302 302 302 302 303 302 299 292 288 287 287 289 287 291 291 293 292 293 292 291 288 289 286 287 289 289 288 287 288 289 287 288 291 290 289 290 291 291 291 288 289 290 289 286 286 287 282 287 287 288 286 286 287 286 289 288 289 283 287 284 282 282 283 285 286 286 286 285 285 286 287 287 287 288 288 288 286 286 286 284 283 284
300 300 300 300 302 302 301 301 302 302 302 293 290 287 289 288 288 290 292 289 290 292 291 290 289 287 284 284 286 288 289 289 290 289 291 291 288 288 289 290 290 291 291 291 290 293 292 291 292 290 291 287 290 289 286 290 288 287 287 287 287 287 283 283 284 280 279 282 282 284 285 284 284 284 284 285 285 284 286 285 286 284 285 286 284 284 285
300 300 300 300 301 302 301 301 301 301 300 293 291 286 290 290 291 290 292 286 290 290 289 288 288 285 285 286 286 287 289 290 292 290 290 290 290 291 291 291 291 287 289 289 291 292 292 294 293 293 292 294 291 289 291 293 291 287 288 286 286 285 284 283 282 281 276 281 281 282 283 283 281 283 285 287 287 288 288 288 287 288 289 285 283 285 290
299 300 300 300 300 301 302 301 301 300 297 291 290 288 290 288 288 289 291 288 285 287 288 287 288 287 286 288 285 286 287 288 290 289 285 291 292 293 294 292 290 289 289 290 293 294 293 293 292 292 293 293 291 292 293 293 292 293 289 286 285 287 287 283 285 281 278 279 279 282 282 276 280 289 290 289 287 287 285 286 288 289 288 287 290 289 287
299 300 300 299 300 301 302 301 301 301 299 296 296 292 293 292 289 287 289 287 284 283 288 285 287 284 287 287 287 287 288 287 287 290 290 289 291 292 294 293 293 287 293 296 297 297 297 297 295 294 293 293 292 293 294 292 290 291 292 291 287 287 286 284 283 281 278 278 280 280 275 279 286 286 289 291 291 290 289 290 290 290 290 289 289 288 285
299 299 299 299 299 300 301 302 301 300 300 298 296 291 294 296 291 286 287 288 285 284 286 283 282 285 287 288 288 288 289 288 291 292 292 292 289 291 292 291 291 291 298 296 297 296 290 286 287 288 287 290 291 291 289 289 289 290 290 289 289 286 286 283 281 282 280 278 278 274 278 284 286 286 286 288 290 288 288 287 288 287 288 289 289 291 291
299 299 299 299 299 299 300 301 301 301 301 299 294 293 294 294 290 285 285 287 282 279 281 285 283 284 287 288 288 288 290 290 288 291 290 289 291 291 290 292 294 299 297 298 294 292 286 284 284 283 282 283 284 285 286 287 286 287 289 288 289 289 286 285 282 283 280 279 279 280 286 286 288 288 284 288 285 284 286 283 287 290 290 290 290 291 292
298 298 299 298 298 299 300 300 300 301 301 300 296 294 293 294 293 291 287 288 283 280 280 287 284 286 288 288 290 288 288 286 289 285 284 286 287 287 289 291 290 295 294 295 285 285 284 282 280 278 279 280 278 280 281 280 283 285 284 284 287 290 288 285 285 281 283 279 277 278 279 278 285 288 286 290 290 291 291 288 286 291 292 293 292 291 291
297 298 298 298 298 299 299 299 300 300 300 300 295 294 294 295 295 293 288 287 288 284 283 283 283 285 287 286 290 289 287 287 285 284 284 284 285 289 291 289 289 293 291 288 286 286 283 283 278 281 277 278 277 279 275 279 281 284 284 284 287 285 287 288 287 282 281 279 279 279 278 282 285 286 289 290 291 293 290 286 285 288 290 291 292 292 291
297 297 297 298 297 298 298 299 299 300 300 299 294 293 292 295 293 292 288 285 286 280 283 285 286 284 286 286 285 287 288 287 288 287 283 283 285 283 291 289 289 290 287 288 284 283 282 280 281 276 275 277 278 277 277 277 277 280 283 284 284 285 282 286 282 279 282 282 279 279 280 282 284 287 286 289 291 294 290 277 281 286 288 291 291 291 291
297 297 297 297 298 298 298 299 299 299 299 299 295 292 292 294 294 293 289 286 283 282 286 287 284 282 282 284 286 284 285 286 286 287 286 282 284 285 287 286 289 290 291 288 282 282 280 278 281 276 278 278 280 282 279 279 278 279 281 283 279 279 279 281 283 281 280 284 276 274 280 283 282 283 285 287 292 292 283 279 284 287 287 287 290 291 292
297 297 297 298 297 298 298 298 298 299 299 299 296 293 292 294 295 293 289 285 285 281 286 288 288 284 285 284 283 283 285 287 288 286 285 285 284 283 288 288 289 288 285 283 283 282 282 278 277 275 279 278 280 279 278 279 277 277 283 280 276 277 277 274 277 278 280 280 279 278 279 284 287 283 286 288 289 280 282 288 286 286 286 284 287 290 288
297 297 298 297 297 298 298 298 299 298 299 299 296 290 291 294 295 295 289 284 285 283 286 286 287 285 287 284 282 284 284 285 285 289 288 287 285 287 290 286 288 286 285 284 284 281 280 279 281 275 275 276 279 279 276 275 279 281 277 285 284 282 281 278 281 278 274 272 275 274 276 282 288 288 286 287 285 284 283 283 284 284 284 285 285 286 286
296 297 297 297 298 298 298 299 299 298 299 298 297 290 290 293 294 295 295 290 286 283 283 289 288 287 287 286 286 285 284 286 284 288 286 288 289 290 285 285 288 284 285 283 283 281 280 279 276 277 278 281 280 278 278 276 277 280 282 282 277 284 280 273 279 283 279 278 276 279 284 287 290 292 288 288 287 286 284 287 288 285 284 284 286 285 284
295 296 296 297 298 298 298 298 298 298 299 299 296 292 288 291 293 294 295 293 287 284 285 289 289 288 289 289 289 288 287 286 286 286 289 287 283 286 283 283 286 282 283 280 280 277 276 276 278 277 277 277 277 279 274 277 275 277 277 279 279 285 283 283 283 279 280 281 284 284 281 285 284 284 286 289 287 283 284 285 285 286 285 281 285 288 286
296 296 296 296 296 297 298 298 298 298 298 298 295 290 287 289 291 294 293 288 290 290 291 289 291 291 290 291 290 291 290 290 290 288 287 291 285 283 283 286 285 284 283 283 286 284 281 281 277 279 277 278 282 276 277 275 277 277 281 283 281 282 284 277 285 282 284 282 282 283 281 284 284 282 282 283 283 282 282 285 286 285 284 283 286 287 284
295 295 296 296 296 296 296 297 298 298 298 298 295 289 289 290 290 291 291 289 285 284 286 288 285 282 284 285 289 291 291 289 291 291 290 290 288 282 284 284 285 282 280 282 283 282 281 282 283 279 283 281 280 278 281 276 277 278 278 279 280 280 280 283 281 281 285 282 283 284 285 282 283 284 282 281 281 282 282 284 285 285 283 283 283 284 283
295 295 295 296 295 295 296 297 298 298 298 296 293 292 291 289 290 290 287 283 282 281 279 281 283 287 288 290 290 288 289 292 293 292 291 290 290 288 285 285 285 285 285 284 283 283 282 282 280 279 281 280 284 281 277 282 278 278 280 279 277 282 281 284 278 281 284 280 280 280 279 280 281 281 284 284 283 282 281 282 282 281 282 282 283 281 283
295 295 295 296 295 295 295 296 297 297 297 296 294 289 288 287 290 290 289 287 285 283 279 277 282 288 288 288 287 289 292 292 292 292 292 291 290 291 288 287 286 285 285 284 283 284 279 278 273 275 281 282 283 278 277 280 280 280 283 283 283 281 286 280 282 282 280 281 281 280 282 283 281 281 281 282 282 283 282 281 281 281 282 282 282 282 283
294 295 295 295 295 295 294 294 295 295 295 294 291 289 289 289 291 288 285 284 282 279 279 277 280 283 284 285 288 290 291 292 292 292 292 292 292 291 291 290 288 285 284 283 282 282 278 276 277 278 276 280 276 275 276 278 278 280 279 280 281 284 282 280 283 278 280 284 283 282 284 281 284 280 282 282 281 281 283 282 283 282 283 282 283 282 280
294 294 295 295 295 295 295 294 294 293 293 292 289 288 289 288 289 290 289 287 283 279 279 278 278 282 285 285 288 289 290 291 291 291 291 291 291 291 290 288 286 285 283 285 282 280 274 278 278 277 275 276 280 279 277 278 277 275 275 279 282 285 283 283 283 283 284 284 286 284 283 281 281 282 281 282 281 282 284 283 283 282 282 281 282 283 283
293 294 294 294 294 295 294 294 293 293 292 290 281 283 283 286 289 290 291 289 285 282 281 281 282 280 277 282 287 287 289 290 290 290 289 289 289 289 289 288 287 284 284 284 283 281 277 278 280 279 278 282 280 277 277 277 276 279 278 280 280 281 282 285 285 282 281 281 284 282 282 282 282 280 281 282 282 283 283 282 282 283 282 281 281 281 283
293 293 294 294 294 294 293 293 295 294 292 278 278 275 274 279 285 289 292 290 285 282 280 276 275 277 281 282 282 285 286 289 289 288 287 287 287 287 287 287 286 287 285 283 283 281 281 280 280 280 281 282 279 278 277 272 273 277 280 281 281 280 280 282 283 284 283 281 280 281 283 283 283 282 281 281 281 282 284 283 283 284 284 283 282 281 280
293 293 293 293 293 293 293 295 296 294 290 278 275 270 267 268 277 290 292 290 284 282 277 278 275 277 275 281 282 281 283 286 286 286 286 286 286 286 286 287 286 287 284 283 282 282 282 278 280 279 282 285 282 278 276 275 272 271 279 281 282 281 282 281 282 282 283 282 282 282 282 282 281 281 281 281 281 280 280 282 282 283 282 282 282 280 278
292 292 292 293 293 293 294 295 295 293 288 286 281 275 274 278 284 290 292 290 285 281 274 274 273 271 273 278 278 281 282 283 283 284 285 286 284 286 286 286 284 287 288 283 284 282 280 283 281 281 280 284 283 274 272 268 270 272 277 281 281 281 282 282 282 282 283 284 284 282 281 280 280 280 280 281 280 280 281 281 280 280 280 278 276 275 274
292 292 291 292 293 293 294 294 294 292 288 291 294 293 293 293 293 292 290 285 283 276 273 272 271 275 272 271 279 280 282 284 283 282 281 285 282 284 283 285 284 284 289 285 280 279 283 282 283 281 283 284 281 278 272 272 274 277 279 281 281 281 282 283 283 284 284 283 284 282 281 280 281 281 282 281 279 278 279 279 279 277 277 276 276 276 276
293 291 291 291 293 293 292 291 292 292 289 281 277 283 287 293 290 292 287 280 277 277 272 271 269 269 269 275 274 279 283 279 278 280 277 284 282 282 279 282 282 282 282 281 282 281 281 282 279 280 282 279 282 277 273 275 277 278 280 282 283 284 284 285 284 284 284 285 285 286 285 284 282 281 280 279 277 277 277 278 278 279 278 278 278 278 277
293 292 291 291 292 293 291 290 279 280 273 276 276 281 287 292 291 289 285 278 272 271 270 271 272 267 267 268 268 276 280 279 277 280 279 280 282 279 281 278 280 278 280 285 279 279 279 279 283 279 277 281 278 275 276 277 278 279 281 282 282 283 284 283 282 283 282 282 284 283 283 283 284 282 283 282 280 279 279 278 278 281 281 281 279 278 277
292 293 291 292 292 290 282 282 278 270 269 271 273 288 291 291 290 283 282 280 277 270 269 270 268 264 267 265 267 274 281 274 277 276 278 279 277 280 278 278 275 278 281 278 276 279 276 283 281 275 280 277 276 276 278 280 280 281 282 282 283 284 284 284 282 280 279 280 281 281 282 282 282 282 280 280 279 277 277 278 277 277 277 278 279 278 276
291 291 291 289 280 277 270 271 280 273 270 275 284 289 290 289 279 281 280 277 277 277 271 268 269 268 265 266 268 269 275 270 277 272 271 272 275 278 275 273 274 280 275 275 275 274 279 284 277 275 276 276 276 280 281 281 281 281 282 282 283 281 282 282 282 280 279 279 278 279 279 279 277 277 278 278 277 274 276 279 278 278 280 279 278 277 277
291 290 279 275 269 264 263 268 267 275 290 288 289 278 272 276 269 270 271 269 273 279 271 270 267 267 266 270 269 277 276 266 272 271 272 272 273 268 274 274 274 279 269 274 275 281 275 274 275 274 272 276 278 277 278 280 282 282 282 282 281 281 282 281 281 282 280 278 278 277 276 277 278 276 277 278 274 274 277 277 277 275 275 275 276 275 275
289 283 277 272 267 267 269 270 281 290 284 282 274 268 267 264 262 260 261 266 273 269 272 269 266 265 266 269 271 281 275 272 269 265 268 274 272 268 275 269 275 272 266 270 273 281 272 272 269 269 272 272 275 278 277 277 278 279 280 281 281 281 281 281 283 283 282 281 282 281 281 280 279 279 276 275 273 273 272 272 272 272 271 271 270 269 269
283 280 277 272 264 271 279 282 290 284 280 270 265 262 262 264 266 262 265 261 262 266 269 264 267 269 269 270 271 272 281 273 267 268 268 273 281 270 273 266 269 271 265 266 269 277 272 269 267 266 270 273 275 276 277 277 279 278 278 278 278 279 281 282 280 279 280 279 278 277 276 277 277 276 274 275 274 273 271 268 268 268 268 268 268 268 269
280 279 275 270 273 274 278 277 269 266 265 261 259 260 260 260 258 262 267 261 263 261 265 267 268 268 271 268 270 269 277 278 274 276 272 268 274 275 270 268 278 267 265 266 271 271 267 263 261 265 269 271 274 275 275 276 279 278 275 275 276 276 276 276 273 273 274 275 274 274 273 272 272 271 271 269 269 270 271 269 267 265 265 265 266 267 266
279 278 279 280 280 278 276 274 267 266 263 262 259 257 256 258 260 257 258 261 260 263 266 267 268 268 267 271 270 273 273 274 273 276 273 269 278 268 264 265 267 266 266 271 270 265 268 263 262 262 266 270 272 272 275 279 278 275 269 267 268 270 271 271 270 267 268 270 270 269 268 268 267 267 266 267 268 267 267 266 265 263 261 261 262 261 263
288 285 282 278 277 275 273 266 264 263 261 259 256 254 254 255 256 260 260 263 259 261 263 268 268 277 273 270 269 269 270 279 276 270 267 266 277 272 266 263 262 260 263 269 270 270 267 263 261 263 267 269 268 271 273 273 270 266 265 264 264 265 267 267 265 263 262 262 263 263 263 264 263 262 262 262 261 260 261 262 261 259 258 258 259 260 259
283 281 277 274 273 271 273 264 272 266 258 254 256 255 257 255 257 257 257 258 258 264 266 271 271 273 267 266 269 272 268 272 276 262 261 263 267 267 269 262 261 267 268 264 267 268 266 266 266 267 268 266 264 261 263 266 267 266 264 262 261 262 264 264 263 262 261 260 260 260 260 260 259 260 260 259 259 258 258 256 258 258 258 257 258 258 258
276 273 272 270 267 272 270 263 268 261 257 256 264 253 256 256 256 255 258 260 262 261 265 269 269 268 266 265 266 266 273 263 270 265 261 264 261 264 265 263 265 260 261 264 266 264 263 263 266 266 266 265 263 261 260 259 259 262 262 260 259 258 259 259 258 258 257 257 257 257 257 257 257 258 257 257 256 255 256 255 256 257 257 257 257 258 258
272 271 270 267 265 267 264 262 262 258 261 262 259 258 257 257 259 260 263 258 258 262 269 266 264 267 267 267 269 266 264 261 263 259 262 260 260 259 260 263 266 263 263 263 261 264 266 265 268 265 261 258 258 257 256 256 256 257 260 258 256 256 255 255 255 256 256 256 256 256 256 255 255 256 256 256 254 254 253 253 255 255 255 256 258 257 257
271 272 270 269 266 266 263 258 260 259 258 258 258 261 262 265 261 260 261 259 263 264 264 263 268 267 268 267 265 264 263 259 258 260 266 258 256 258 266 262 259 261 262 257 259 261 260 262 263 259 256 255 254 255 254 254 253 254 254 254 254 254 254 254 254 254 254 254 254 254 254 254 253 253 253 254 254 253 253 252 254 253 254 254 255 255 255
268 271 269 264 264 265 261 261 257 257 257 259 257 258 259 259 263 264 264 260 266 269 269 265 268 265 266 263 265 264 260 255 261 261 264 263 266 256 257 259 257 260 257 258 261 262 262 263 260 257 254 253 251 251 252 252 252 251 252 252 252 252 252 252 252 253 253 252 252 252 252 252 251 252 252 252 253 253 251 252 253 251 253 253 252 254 254
269 265 267 266 265 262 262 261 261 262 260 257 257 261 262 266 262 263 263 261 268 267 266 267 263 264 263 263 259 263 262 259 256 256 260 257 260 261 262 257 258 255 256 259 263 263 261 259 255 253 252 252 251 251 251 251 251 250 250 250 251 251 251 251 251 252 252 251 251 252 251 251 250 252 252 252 251 253 253 253 252 251 250 251 251 252 252
267 267 266 264 263 262 260 259 261 260 255 256 261 261 261 262 261 262 261 263 263 266 269 272 270 269 259 261 258 255 256 256 259 263 262 258 258 256 256 251 252 257 257 255 257 256 255 252 253 251 250 250 252 250 250 249 250 250 249 250 250 250 250 250 250 251 250 249 249 249 250 250 250 252 252 252 253 253 253 253 252 251 251 250 251 252 253
266 265 264 263 264 264 264 262 262 259 257 262 261 260 261 264 264 263 260 262 263 263 258 258 262 257 258 257 255 258 259 259 258 250 255 257 255 252 253 254 253 256 257 257 256 256 254 251 251 250 249 247 248 250 249 250 250 249 250 249 249 249 250 250 250 251 249 249 248 250 249 249 250 251 251 251 251 252 252 254 254 251 250 250 249 250 251
259 259 263 261 258 258 259 262 261 260 259 258 259 259 261 262 260 261 261 263 266 268 262 257 257 254 251 252 253 253 257 258 255 256 256 252 253 254 249 251 258 258 258 258 256 252 250 247 247 248 247 249 250 248 247 246 246 246 246 247 247 247 248 248 249 248 248 248 248 247 248 248 248 248 249 251 251 251 250 250 250 250 248 248 249 249 247
Wind_Speed
26 28 29 27 30 29 21 28 44 43 42 18 12 10 11 9 9 12 22 20 23 17 13 12 11 8 7 3 5 3 5 8 10 12 6 4 2 6 5 10 9 6 9 6 9 12 4 11 12 5 5 6 3 7 14 12 14 11 2 5 6 8 4 6 2 1 2 3 3 1 1 0 2 3 1 3 7 4 6 4 6 8 2 1 0 1 6
24 26 26 27 25 26 24 20 16 23 16 15 13 12 10 12 13 9 4 13 15 16 15 13 12 10 6 6 4 3 4 10 10 9 9 5 6 9 6 5 11 12 7 15 16 14 6 5 8 3 3 5 3 5 12 19 11 14 9 13 7 5 2 9 4 3 2 3 3 4 0 1 2 2 2 1 3 5 2 3 1 3 6 8 7 9 3
23 24 27 25 26 25 26 26 22 20 14 6 10 12 10 12 6 8 9 3 9 15 3 13 20 18 14 12 9 5 2 4 12 13 10 2 5 7 5 9 8 5 11 13 11 15 9 6 4 3 5 4 0 5 12 19 12 10 7 7 8 3 4 8 8 12 13 13 17 18 14 8 2 0 0 2 5 6 3 2 1 3 2 4 3 5 9
22 24 25 26 25 26 27 26 22 20 19 13 11 8 14 12 14 5 6 3 8 1 2 4 11 13 11 9 4 3 7 3 4 12 3 1 4 4 6 4 9 6 10 7 8 12 2 9 6 8 6 2 1 3 9 15 10 10 15 12 12 3 3 8 9 13 14 9 2 4 10 3 5 3 5 5 5 6 4 4 3 8 4 7 8 8 6
22 22 24 26 26 26 27 26 25 23 20 14 5 5 4 5 12 17 13 7 8 5 1 6 13 14 7 7 4 9 9 4 2 3 4 3 6 3 5 7 11 7 16 11 10 9 4 3 12 7 9 0 2 2 7 3 3 12 9 12 7 4 4 10 12 14 11 9 9 9 13 11 12 11 8 8 7 6 7 9 9 7 6 7 6 6 6
20 21 23 26 26 26 27 27 26 22 18 12 5 7 5 8 3 5 2 13 18 10 7 12 15 9 4 4 2 8 12 9 8 1 2 3 3 10 1 12 15 20 19 15 12 9 6 8 11 6 3 5 1 5 1 6 1 7 5 9 6 7 8 5 4 4 2 6 9 12 13 15 15 19 18 15 11 8 12 11 12 6 9 14 13 7 6
21 21 22 25 24 24 26 26 24 20 15 9 5 8 3 3 3 1 2 6 8 16 23 21 19 15 8 2 6 10 14 13 7 5 3 5 3 6 11 15 18 21 16 15 9 13 8 6 6 9 8 10 8 4 2 1 2 5 6 6 1 6 5 6 7 4 2 2 3 6 10 6 5 10 14 13 13 13 15 15 11 10 9 11 11 5 12
20 21 21 23 24 23 25 25 23 19 10 6 10 6 3 3 5 4 4 2 13 14 14 11 15 13 5 5 6 9 14 13 3 1 7 8 6 1 14 15 15 16 16 15 15 20 23 23 16 6 14 6 6 11 8 7 1 2 4 5 1 5 3 6 3 4 1 4 3 3 5 5 7 6 7 9 12 14 16 16 15 10 9 7 5 5 10
19 19 19 21 24 22 24 25 24 21 8 8 7 3 4 0 0 0 8 11 6 11 10 11 14 9 3 4 4 6 10 9 5 2 3 8 8 6 15 15 14 13 16 14 17 19 13 12 19 18 22 18 12 11 4 8 11 6 4 2 0 3 1 2 4 5 1 3 2 2 1 0 4 5 7 10 12 13 11 10 7 5 10 11 9 10 13
18 18 19 21 23 23 23 24 24 22 12 8 4 4 2 1 0 2 5 6 3 13 7 6 9 10 5 3 4 5 11 7 9 5 4 4 4 7 12 14 14 6 12 17 14 8 8 11 8 11 2 7 6 3 8 14 15 7 5 1 5 4 6 4 4 6 2 2 0 4 5 1 4 11 15 17 13 12 8 8 8 12 15 13 11 16 11
19 20 20 20 22 23 22 22 23 25 13 9 5 4 2 3 2 3 4 9 3 7 9 10 16 2 4 4 4 4 5 5 5 15 1 2 3 6 18 16 15 11 14 7 3 7 9 12 9 7 9 9 5 5 11 8 3 8 12 4 3 7 8 5 5 6 3 2 2 1 6 5 14 4 6 13 15 14 10 10 14 13 7 9 11 8 2
18 19 19 19 20 22 21 20 21 23 16 8 3 5 4 0 2 3 6 12 6 1 9 9 10 1 5 5 6 5 7 5 2 4 9 3 3 1 12 13 12 8 1 7 15 16 14 13 14 13 13 12 10 6 12 14 5 4 1 10 8 8 7 6 3 6 4 2 3 5 6 15 1 4 1 9 10 10 18 19 15 14 12 11 10 8 5
18 18 18 18 18 19 21 20 19 19 15 7 6 7 6 4 0 3 6 8 8 7 10 3 1 1 4 7 7 6 7 3 6 9 6 9 4 4 1 3 9 4 12 13 15 16 12 9 10 9 6 8 8 12 13 9 4 5 6 3 9 9 9 4 3 4 3 2 3 5 14 2 3 5 0 1 3 4 5 8 8 7 8 11 14 17 13
16 17 17 17 17 17 18 19 19 16 13 8 6 6 5 7 3 3 4 8 3 1 1 7 2 5 8 7 10 5 8 8 4 5 5 3 7 5 1 0 1 15 12 14 14 15 8 4 7 5 2 4 3 4 2 4 7 3 3 1 0 10 6 6 3 2 5 5 5 8 7 11 12 6 3 6 6 6 8 8 11 11 11 12 14 16 12
14 15 16 17 16 16 16 17 17 16 12 8 4 5 7 7 4 2 0 6 7 1 1 12 7 7 8 7 10 7 8 5 9 4 1 1 5 1 1 1 2 6 1 9 3 5 5 5 5 6 1 5 6 7 2 1 2 3 3 1 1 6 10 4 7 2 5 6 1 3 5 10 20 3 1 5 7 8 8 6 10 6 12 14 15 15 13
13 14 15 16 15 16 15 16 15 15 15 8 5 3 5 7 4 1 1 6 11 8 1 3 2 1 7 3 9 13 8 6 6 4 3 4 2 2 1 2 3 2 3 6 4 6 5 6 5 9 6 7 1 5 2 0 1 2 6 2 6 6 2 8 10 3 5 3 6 8 10 15 2 5 8 9 9 11 7 3 16 6 11 11 14 14 9
12 13 14 14 15 15 15 15 15 14 12 11 4 4 5 8 5 2 3 5 5 4 1 2 1 1 5 6 3 5 5 8 8 8 4 3 1 0 1 3 2 4 2 5 2 5 4 4 5 4 0 3 6 5 4 2 4 1 3 5 5 7 3 7 6 5 8 9 8 11 6 7 3 7 5 8 7 12 8 2 12 1 10 12 11 11 12
12 12 12 13 13 14 14 14 14 14 13 9 4 4 5 8 6 1 4 6 8 3 3 4 1 2 3 3 5 1 3 6 6 6 7 2 3 2 1 1 2 3 0 6 4 6 4 4 9 4 6 3 1 6 10 8 8 8 8 9 6 4 0 5 14 9 7 10 5 3 7 4 3 4 1 5 9 12 9 15 6 5 5 2 8 13 12
13 13 12 12 13 14 14 14 13 13 13 11 3 2 6 8 8 5 6 4 6 6 3 2 1 2 0 0 1 3 2 5 8 9 6 4 1 3 6 1 3 3 4 4 4 5 7 1 2 4 7 2 0 8 4 8 7 2 9 7 3 1 4 2 3 6 10 9 8 8 6 7 9 1 8 7 7 5 13 8 1 4 6 3 5 8 6
13 13 13 13 13 14 14 14 14 13 12 13 6 4 1 7 7 4 3 8 4 8 5 6 2 6 4 2 3 4 3 3 1 10 9 8 1 4 7 3 4 3 1 3 5 2 5 7 7 1 2 5 5 4 3 1 1 9 6 10 11 12 9 8 9 3 4 2 4 0 10 4 8 10 3 2 6 7 6 2 0 1 2 4 2 5 5
13 14 14 14 14 14 15 15 14 13 12 10 5 3 6 9 9 10 7 5 9 12 6 3 2 7 3 7 6 2 2 5 3 8 3 6 7 7 10 9 9 3 6 5 10 5 3 4 4 3 3 7 4 3 8 5 0 4 5 6 2 5 7 3 5 6 9 9 9 10 8 7 9 15 12 9 9 2 4 6 4 0 2 4 3 2 4
13 13 13 14 14 15 15 15 15 14 12 11 7 3 6 6 5 6 7 9 9 7 5 3 0 4 5 4 3 2 3 2 1 1 8 9 6 1 1 4 6 4 2 3 4 2 1 2 1 4 4 1 1 4 4 7 5 2 1 3 4 9 8 9 12 4 7 9 12 5 2 4 2 2 1 6 3 1 5 4 4 6 3 3 3 3 1
12 13 13 14 14 15 15 15 14 14 14 12 7 6 4 5 6 7 6 13 8 7 4 3 0 3 1 2 1 2 2 1 1 1 2 7 5 3 3 5 4 0 1 1 5 6 5 6 3 5 3 1 9 4 0 2 5 4 7 6 2 3 5 2 5 6 2 3 3 2 1 1 0 3 1 0 1 2 2 5 5 1 2 4 2 1 1
12 12 13 14 14 15 15 15 15 14 13 13 8 3 5 4 5 5 6 5 3 6 4 7 4 5 6 7 8 9 7 6 3 5 2 1 9 2 2 2 1 3 1 3 3 4 5 3 3 2 5 5 4 5 9 5 6 5 3 1 3 2 2 3 3 1 7 9 1 6 6 2 1 2 3 3 3 0 1 3 3 4 3 3 1 2 2
12 12 13 14 14 15 15 15 15 16 15 12 7 6 4 5 6 5 3 4 3 3 6 2 6 3 4 5 6 2 4 5 7 3 1 2 4 7 7 3 4 3 5 2 2 4 3 5 1 1 5 3 5 6 2 6 4 4 6 4 2 2 3 4 1 6 9 5 1 0 1 2 0 1 4 4 3 4 4 2 3 3 3 4 3 2 4
10 11 12 13 14 15 16 16 16 16 16 17 13 7 6 4 6 4 5 5 4 4 5 4 3 5 5 4 5 4 8 8 5 5 7 4 2 8 12 3 4 3 5 3 3 5 4 5 3 1 6 3 1 2 4 3 3 3 6 8 6 4 8 5 7 6 1 3 0 2 4 4 2 1 0 1 2 5 4 3 4 3 5 4 4 5 2
9 11 11 13 13 14 15 15 15 15 15 13 8 7 6 4 8 9 4 1 3 4 4 3 0 3 4 7 4 5 5 7 7 8 9 10 10 6 7 8 8 4 4 5 4 5 4 3 3 2 1 2 3 2 2 2 3 5 4 2 2 7 8 2 5 2 4 10 7 7 6 4 5 2 1 0 1 3 5 5 5 5 5 5 6 4 2
9 10 11 12 12 13 14 13 12 11 9 8 6 6 7 8 6 5 4 2 1 3 5 4 3 2 1 5 8 7 8 8 6 9 9 9 9 8 7 6 5 5 3 4 3 4 2 4 1 0 1 1 4 1 0 0 3 2 0 5 4 7 7 7 7 8 10 6 9 6 4 4 1 5 3 3 3 5 7 6 5 3 2 3 5 5 5
8 8 9 11 11 13 13 14 13 11 8 5 3 4 5 5 6 8 8 6 3 6 7 4 2 6 2 2 7 9 9 9 9 9 9 9 10 9 8 7 6 2 3 5 5 4 4 2 1 4 1 3 5 2 2 1 2 7 5 3 4 2 3 6 6 4 2 0 6 5 5 8 5 3 4 4 3 5 7 4 4 4 4 4 4 4 6
8 8 9 9 11 12 14 13 13 11 6 5 5 6 5 4 5 8 10 6 3 3 5 4 5 0 3 5 5 5 7 8 8 11 11 10 9 8 7 5 5 3 4 3 3 5 1 4 0 1 2 1 2 3 3 2 2 5 2 1 2 1 1 2 3 4 4 3 3 2 9 10 6 6 4 4 3 3 7 5 4 4 2 2 4 3 1
8 9 8 9 10 12 13 14 14 14 11 6 5 5 4 2 5 7 12 7 3 5 3 4 4 1 4 1 3 6 7 6 7 7 8 6 5 5 3 2 4 3 4 3 4 1 3 2 2 1 1 1 1 3 5 4 3 1 2 0 1 4 5 4 4 6 12 9 9 8 9 8 5 5 4 1 2 2 3 1 0 1 2 2 2 2 1
8 8 8 9 11 12 14 15 15 13 11 10 6 2 1 1 4 9 10 5 2 6 4 5 3 3 1 1 2 1 2 3 2 3 4 5 5 6 6 6 2 4 4 4 1 3 1 0 3 0 2 1 4 2 3 3 3 3 1 2 0 3 6 9 9 8 10 12 17 14 8 3 2 5 5 4 2 1 4 5 2 1 1 2 1 0 1
6 7 7 8 9 10 12 14 15 11 7 10 13 11 8 8 10 9 6 4 6 1 2 5 4 1 2 3 1 3 1 2 4 3 4 4 3 3 4 3 3 4 5 3 3 2 1 2 1 3 1 1 3 1 2 3 5 1 3 4 4 4 6 6 8 7 7 2 1 9 10 6 4 4 7 5 3 4 5 6 4 2 2 1 1 1 2
8 6 5 6 9 9 9 10 10 9 9 6 4 6 6 11 9 14 5 5 3 1 3 3 3 4 1 2 5 2 2 1 1 2 2 3 2 3 1 3 2 2 5 4 1 3 2 2 3 2 2 2 1 3 1 4 3 1 3 4 4 5 7 7 5 6 5 6 6 7 8 7 6 5 5 5 4 1 2 3 3 3 1 2 3 2 1
8 6 5 5 8 10 12 9 7 6 3 1 1 3 4 10 8 7 7 2 2 2 2 2 2 5 4 3 1 1 0 2 1 1 3 1 2 2 1 3 3 4 1 2 3 1 1 1 2 4 3 0 3 2 2 2 2 3 4 6 4 7 6 8 2 3 4 5 8 7 7 7 7 3 3 3 3 1 2 2 3 3 3 4 3 2 1
5 10 2 9 10 6 3 7 5 3 4 1 1 4 7 7 7 4 5 5 4 2 2 0 3 2 4 5 3 2 1 2 0 3 0 1 3 2 2 1 3 1 1 3 1 1 1 2 4 1 1 4 4 2 4 7 8 8 11 12 9 9 7 10 9 4 4 4 6 6 6 4 6 5 3 2 2 1 1 1 2 4 2 2 4 3 2
5 6 8 9 6 6 4 1 1 2 2 3 1 3 9 6 1 4 7 5 4 3 3 1 5 0 2 4 0 3 3 2 0 4 3 3 2 1 3 3 2 1 4 2 3 2 2 2 3 1 1 4 1 4 7 8 10 11 6 7 7 1 5 6 9 9 8 6 6 3 3 4 2 1 2 3 2 1 1 1 3 2 2 3 3 3 2
3 6 4 3 4 4 2 3 0 2 3 4 6 5 7 7 2 3 4 5 3 4 4 4 3 1 2 4 1 5 4 2 3 3 1 1 2 3 0 2 3 2 2 2 3 2 2 3 0 2 3 2 1 1 2 5 4 3 7 6 5 5 8 8 9 10 9 5 2 1 2 1 0 2 3 5 3 3 6 3 0 0 0 1 2 2 4
4 2 3 3 3 0 2 2 3 4 3 2 5 2 2 1 3 3 1 1 2 3 3 4 1 0 3 4 0 4 4 4 3 2 3 3 4 1 1 2 2 4 2 3 5 2 1 1 1 1 5 2 2 2 1 2 1 1 3 3 5 7 9 8 9 13 11 9 9 10 10 8 7 7 6 5 4 3 1 1 1 1 1 2 3 1 2
2 2 2 1 1 1 1 2 4 2 2 2 3 4 1 2 4 1 1 3 1 2 2 2 2 2 0 4 3 2 2 4 2 1 3 0 0 3 2 2 3 4 1 2 3 4 3 2 2 1 5 3 5 3 2 2 3 2 0 1 3 5 6 10 3 4 3 4 5 4 2 1 3 3 5 5 4 3 1 1 2 1 1 1 1 1 1
1 1 3 1 2 1 1 1 3 5 2 1 1 3 1 2 1 0 2 1 0 1 0 1 3 3 1 3 3 2 3 3 1 2 3 2 3 4 4 1 2 5 1 1 3 5 1 2 1 3 5 2 3 4 4 3 4 2 4 4 3 3 3 5 7 6 3 6 5 6 5 5 6 5 3 2 3 2 1 2 3 2 2 3 2 2 2
1 2 3 1 1 1 2 4 2 1 1 0 3 0 0 2 1 4 1 3 1 1 2 1 0 1 1 0 1 1 1 1 1 1 1 1 2 3 2 1 3 4 2 3 2 3 2 1 2 3 4 3 1 3 5 7 4 4 6 7 7 6 4 6 7 9 8 7 6 6 6 7 7 7 5 4 5 5 5 4 6 4 4 2 1 3 4
8 6 3 4 2 2 1 2 2 2 1 1 3 1 2 2 1 2 1 1 2 3 3 1 1 1 2 2 2 1 2 1 1 2 3 2 1 4 2 1 2 2 3 1 3 2 2 3 2 5 3 2 1 2 1 2 5 7 6 7 7 6 6 7 8 8 7 9 8 7 5 7 7 5 5 6 4 7 6 6 5 3 3 4 3 3 4
1 2 4 1 2 2 2 1 1 4 3 1 3 2 1 2 2 2 1 2 1 0 2 4 4 4 2 2 3 1 3 3 2 3 3 1 3 0 1 1 2 5 3 4 1 2 4 2 5 3 2 1 2 3 6 5 4 4 8 8 9 9 8 7 7 8 8 7 8 6 6 7 6 6 7 6 7 6 5 3 4 4 3 3 4 4 3
3 2 2 2 2 1 3 1 1 3 4 3 2 2 3 6 5 3 3 3 3 4 0 4 4 5 2 2 3 2 1 2 3 4 2 1 4 1 2 2 1 3 3 2 0 1 2 2 2 1 1 1 2 6 7 8 8 5 2 4 10 11 10 9 8 6 6 7 6 5 6 6 6 6 6 6 5 4 6 4 5 6 6 4 4 4 4
2 2 2 3 1 1 2 0 1 0 2 1 3 6 4 4 6 4 5 1 3 2 7 4 4 5 3 2 4 2 2 2 3 1 1 3 3 0 3 0 3 3 0 1 1 5 5 3 3 1 1 2 4 6 6 7 7 6 5 7 7 7 8 7 6 6 6 6 6 6 6 6 5 6 5 5 5 4 4 4 5 5 5 5 6 6 6
2 2 1 0 2 0 1 2 3 4 3 3 4 5 3 6 6 3 1 1 4 4 5 1 4 3 5 0 2 2 3 2 2 2 3 3 1 2 3 5 0 2 3 2 3 4 2 2 2 1 2 5 5 5 6 7 7 8 7 5 6 6 6 6 6 7 5 4 4 4 4 4 3 3 3 4 4 2 3 5 6 4 3 3 4 4 5
1 0 2 2 2 2 2 3 1 0 0 0 0 4 1 2 4 2 0 1 5 5 6 4 5 1 4 3 4 1 0 1 2 4 2 2 1 6 2 3 1 1 2 3 5 4 3 1 0 0 1 2 3 4 5 6 7 7 6 5 6 6 7 7 6 5 5 5 4 3 3 3 3 3 3 3 3 3 2 4 5 4 4 3 3 3 4
2 1 0 1 0 1 0 0 3 4 1 5 1 2 4 5 3 1 0 0 5 5 3 5 3 3 1 2 3 1 1 2 4 4 1 4 3 2 2 2 1 1 5 5 5 2 1 1 2 1 1 1 2 2 3 2 3 4 4 4 4 4 4 4 4 4 4 4 4 4 4 4 3 3 3 2 2 4 3 4 4 3 1 1 2 4 4
2 1 2 2 2 2 1 1 3 1 3 3 1 2 1 5 3 1 0 2 1 4 1 4 2 5 2 1 1 2 1 2 3 1 5 1 2 0 4 1 3 5 2 1 3 3 3 3 3 3 4 3 1 1 1 2 2 2 2 2 3 3 4 4 4 5 4 4 4 5 4 4 3 3 3 3 4 5 5 5 2 0 3 2 2 3 4
1 2 1 2 1 1 3 4 6 4 2 5 4 4 4 6 6 4 1 4 4 5 4 2 1 3 1 3 2 2 2 2 5 1 5 3 1 4 3 5 5 6 6 2 1 3 4 3 3 2 1 1 1 1 1 4 4 3 3 4 4 2 3 2 3 4 4 4 4 5 5 4 4 5 5 4 5 5 4 3 1 0 3 4 4 4 4
1 1 0 1 3 3 1 2 2 2 1 0 2 1 0 3 1 1 1 2 5 8 4 1 3 2 3 2 5 3 1 5 0 0 3 4 2 5 4 6 5 6 6 4 4 4 3 2 2 2 1 1 0 1 1 3 3 4 4 5 4 4 4 4 5 3 4 3 3 4 4 4 5 4 4 3 3 1 1 3 3 3 4 4 5 6 5
Wind_Direction
14 10 12 9 1 353 352 171 152 148 143 143 143 124 121 114 105 128 146 154 151 156 170 160 153 173 197 335 309 230 159 152 170 154 195 140 137 121 141 166 130 188 144 152 150 159 153 168 189 149 164 192 197 188 165 149 165 156 167 114 186 89 109 81 332 1 314 311 310 306 188 64 316 278 142 135 207 179 171 166 182 162 159 126 67 184 249
9 10 10 6 6 353 359 43 87 122 132 136 130 113 112 112 118 106 144 164 161 164 165 160 175 170 175 225 232 294 170 152 164 168 176 145 159 152 138 156 171 157 169 153 169 172 138 217 147 162 171 184 188 182 171 158 172 173 199 177 192 165 254 132 129 57 357 338 339 336 320 145 210 203 242 174 84 72 152 105 83 140 218 169 144 226 277
11 12 9 6 8 356 8 23 38 58 61 76 117 120 126 110 68 91 133 173 174 180 198 184 167 169 181 196 196 192 114 211 172 162 172 110 136 128 167 160 145 134 156 167 159 177 160 149 241 97 170 166 341 237 179 177 178 185 150 136 141 100 172 138 162 175 179 190 198 204 203 197 205 221 78 170 126 143 134 201 149 172 271 139 163 242 247
17 13 7 6 8 4 9 21 29 44 42 47 92 126 132 149 129 136 93 119 178 211 23 104 158 163 177 195 223 160 141 150 344 155 147 158 87 84 120 67 103 114 130 130 153 176 235 149 183 151 161 169 267 217 198 189 182 169 149 146 145 147 162 174 179 190 204 204 75 90 102 105 197 232 170 205 203 192 152 104 126 200 209 187 226 191 222
22 14 6 6 9 10 10 18 26 32 37 42 87 44 93 110 138 149 149 108 200 148 118 142 163 182 184 185 188 166 153 152 90 347 134 235 134 99 120 147 132 164 145 158 165 170 92 56 137 173 150 262 175 23 165 96 124 145 133 162 116 108 173 211 198 201 207 163 170 184 155 175 201 198 213 201 186 186 167 189 221 180 119 257 250 214 189
22 16 9 9 13 14 14 17 23 27 29 34 60 66 20 127 158 142 147 163 163 177 221 183 174 178 162 210 147 164 146 160 154 41 346 127 154 124 343 161 162 164 167 155 159 162 149 144 165 154 139 102 95 105 350 164 200 162 157 183 153 159 199 205 154 220 42 191 187 180 178 188 192 197 200 199 191 168 191 214 220 138 190 221 230 190 202
25 22 13 12 16 19 20 18 20 22 20 46 62 84 331 74 77 125 23 25 186 179 164 164 168 180 181 166 154 167 161 166 160 155 134 137 189 146 157 181 168 171 159 155 156 159 135 194 170 164 168 157 144 118 87 255 17 166 145 174 202 155 211 181 170 162 90 14 191 186 188 199 195 204 205 195 181 189 199 217 212 183 214 227 238 187 223
26 24 16 12 18 24 24 24 20 18 11 44 66 31 104 113 130 179 18 45 119 110 118 145 164 183 199 164 215 168 167 155 140 57 141 153 190 143 160 174 169 162 164 164 169 181 182 171 172 183 141 160 167 170 175 145 25 54 147 152 274 152 235 126 110 116 123 342 354 198 212 177 198 217 201 191 195 204 207 211 219 207 247 261 291 294 274
27 26 20 15 20 28 25 27 24 19 11 57 63 46 44 332 67 252 130 121 113 89 112 146 171 175 233 164 206 151 167 157 143 114 330 167 162 164 168 155 157 164 169 181 187 189 182 164 167 160 154 173 191 151 243 152 145 147 131 140 133 83 166 39 115 134 229 354 28 165 110 117 215 229 199 197 196 209 218 218 214 173 218 235 245 254 253
27 29 26 20 21 26 31 27 28 25 36 95 72 60 337 74 29 97 80 62 119 134 123 128 141 204 210 154 198 170 179 159 142 93 17 52 129 141 131 146 139 173 176 193 191 165 147 163 144 161 93 82 68 68 149 161 151 152 143 179 131 145 124 138 116 154 239 291 311 135 122 106 297 246 218 200 203 203 208 224 215 204 203 215 219 234 236
29 31 29 25 21 27 33 35 32 30 38 52 63 52 0 32 74 63 48 102 27 109 141 166 180 187 141 145 96 75 122 156 172 143 229 38 26 149 138 149 153 171 192 190 172 119 99 92 88 65 79 96 83 103 112 78 104 146 144 104 158 132 137 159 167 164 194 293 226 135 114 199 229 251 175 179 194 196 198 218 219 227 189 215 215 235 126
31 31 34 29 25 25 32 39 39 39 36 32 36 70 17 345 343 66 107 137 146 76 158 187 170 207 154 153 113 136 144 141 92 98 116 74 69 72 148 153 142 175 229 126 114 104 94 73 67 59 61 68 69 73 119 135 110 55 59 155 156 155 139 145 137 104 161 198 114 124 201 227 289 315 302 190 187 184 204 218 216 219 220 241 265 264 201
36 35 34 32 30 26 26 38 46 44 38 20 31 50 359 325 337 119 113 122 148 158 152 178 307 190 131 117 100 123 129 129 102 96 87 114 76 72 48 146 158 142 150 132 115 98 93 97 66 89 64 65 61 66 41 37 58 53 63 42 138 148 132 138 59 111 66 57 137 157 225 228 306 281 34 277 182 203 200 267 263 249 226 223 238 241 234
35 34 33 33 32 31 30 30 40 45 39 30 39 35 12 6 52 44 102 124 147 342 163 70 70 133 134 132 117 112 98 83 58 76 87 343 122 115 8 95 203 148 154 119 97 104 73 44 100 50 352 26 49 75 318 46 21 50 72 32 297 143 108 127 119 202 155 184 180 245 343 322 288 253 204 172 161 151 168 219 254 217 208 202 226 239 241
37 33 32 30 33 34 33 33 34 35 32 29 34 31 26 11 18 82 203 90 138 76 8 157 188 168 134 133 128 123 103 148 102 32 349 16 63 254 201 296 348 127 124 115 58 45 134 121 104 112 76 128 162 190 349 122 302 39 20 304 160 173 161 189 160 253 117 122 59 354 290 256 248 203 226 179 169 157 164 172 264 214 215 204 214 225 225
38 36 31 30 31 33 33 33 32 31 23 12 33 17 31 6 318 299 118 129 131 142 307 5 24 165 130 157 153 141 149 130 124 112 59 17 25 51 358 356 336 16 44 70 97 104 120 115 151 141 171 183 211 104 254 106 34 334 20 44 94 16 84 153 174 150 89 126 179 212 224 245 115 163 188 188 172 151 126 108 261 216 196 207 207 223 220
40 36 34 31 32 34 34 32 32 26 25 20 15 358 19 352 4 355 67 52 65 93 40 294 255 179 108 75 43 95 137 137 147 127 114 99 113 325 67 347 350 63 54 90 40 91 84 90 131 118 39 136 135 186 105 124 131 89 350 39 81 113 117 134 151 164 181 183 191 222 219 253 219 192 201 185 138 117 111 149 255 184 189 207 187 210 213
40 40 39 36 35 35 33 34 30 28 19 17 39 47 356 342 350 279 61 89 111 92 13 358 84 106 137 178 144 209 68 88 55 77 92 169 110 104 184 16 94 335 126 116 144 94 110 128 161 164 161 242 134 122 180 164 171 184 169 154 144 125 60 177 194 180 178 177 229 315 284 262 231 227 218 123 148 129 145 210 228 221 205 183 172 209 215
41 44 45 41 37 36 36 33 32 28 26 16 351 4 5 350 343 8 102 70 87 110 325 344 33 75 130 66 119 166 189 160 142 101 121 89 245 214 135 168 129 153 2 140 104 136 139 188 37 123 132 216 196 191 141 159 190 56 127 108 72 108 106 334 73 161 176 192 191 229 254 240 181 330 147 162 114 194 205 227 243 161 192 230 187 203 213
48 48 43 43 42 38 37 36 35 35 25 19 25 98 270 344 353 3 108 111 69 96 47 18 10 60 359 81 99 100 98 53 2 128 171 143 255 123 93 109 303 84 37 87 156 194 127 177 186 143 105 155 208 147 74 240 77 162 165 180 169 177 155 186 185 170 64 88 196 162 257 246 131 111 82 270 181 230 204 163 62 168 185 174 218 194 219
45 42 44 43 40 38 37 36 37 37 31 24 25 56 17 355 3 15 31 99 121 98 52 347 41 64 62 63 61 57 89 156 174 143 168 113 173 148 158 189 179 150 181 164 168 207 161 162 165 162 201 141 185 95 183 148 107 269 148 172 155 191 159 200 208 182 167 170 185 207 214 121 181 147 179 196 201 197 163 141 158 219 163 162 170 250 212
43 43 45 43 40 39 36 38 38 40 39 36 34 46 51 333 353 355 49 58 67 83 126 195 171 93 86 95 92 94 117 109 237 214 141 126 351 109 209 103 127 154 187 126 69 37 342 164 88 112 146 139 35 178 171 117 174 217 330 134 165 215 193 179 181 193 157 194 211 232 242 144 135 40 280 189 175 213 176 137 149 145 216 197 142 183 193
50 48 45 44 42 38 38 36 38 41 44 41 44 60 65 351 357 336 60 74 71 74 56 43 207 87 17 67 78 49 318 198 36 135 319 133 118 353 125 139 172 184 40 16 170 153 168 126 182 153 70 170 155 118 2 131 170 171 175 239 200 262 194 159 100 234 276 300 191 106 66 101 6 358 310 106 73 54 121 145 121 228 170 173 157 169 148
54 49 48 47 41 40 37 37 37 41 48 48 51 67 46 29 347 349 37 65 83 119 58 24 53 26 6 348 327 335 11 8 1 290 221 236 130 137 334 285 140 67 343 242 191 136 178 106 172 139 158 216 106 128 160 234 225 185 116 55 253 264 152 121 162 234 153 245 151 148 161 139 77 80 34 34 64 70 148 108 100 141 141 123 77 115 126
52 51 51 46 44 42 41 43 43 46 46 49 55 48 69 28 6 0 71 90 15 59 108 45 35 27 304 271 274 309 347 332 306 320 84 111 124 148 176 186 166 149 182 186 146 65 46 109 49 112 151 238 141 212 304 135 252 167 168 232 104 271 184 146 199 161 174 231 279 305 21 90 139 207 135 88 63 53 32 63 109 107 73 66 38 81 58
55 55 51 48 44 44 46 47 51 51 52 54 57 64 60 34 336 12 65 55 77 69 87 84 34 344 323 3 25 332 302 328 347 7 43 45 78 122 124 111 57 24 95 107 92 96 116 58 96 141 137 218 71 150 189 202 160 169 190 202 193 167 127 205 173 166 281 36 4 195 93 33 5 2 335 216 157 115 78 71 82 92 78 70 50 67 91
60 56 53 50 46 45 46 51 52 49 49 53 61 61 70 52 29 39 44 336 67 41 29 76 314 327 2 38 343 330 342 343 2 47 45 43 68 69 85 100 102 57 76 58 35 109 67 101 100 165 125 198 121 144 139 52 121 140 201 254 137 103 185 189 113 141 196 204 183 173 122 214 219 246 240 188 186 124 110 90 76 77 91 98 94 59 88
65 58 55 54 48 40 39 37 36 38 40 52 51 71 64 60 28 38 43 29 98 158 143 108 95 235 213 39 351 345 352 2 24 53 56 52 49 55 71 79 84 72 27 88 63 30 40 96 173 209 105 303 78 88 81 203 62 33 320 233 200 167 187 144 171 180 220 218 182 181 106 78 102 159 176 170 157 129 106 107 112 96 114 142 112 93 48
79 66 62 57 47 41 30 26 23 21 27 53 46 38 46 58 45 25 25 14 81 93 96 98 73 36 65 289 353 354 350 14 35 47 58 50 46 46 54 54 63 106 84 62 85 95 92 126 85 120 153 209 93 190 85 157 168 217 228 216 163 239 171 183 177 117 7 327 153 150 138 156 155 165 146 135 148 122 107 112 110 128 127 119 97 98 111
85 79 70 60 55 47 37 30 28 21 42 53 48 42 38 333 2 19 355 16 29 105 93 113 94 279 351 17 352 354 349 3 30 47 47 45 42 40 25 45 40 35 83 112 137 97 143 102 87 314 299 5 131 167 123 181 164 240 286 299 226 55 91 129 152 149 182 142 126 114 115 108 110 136 141 141 146 126 123 141 145 122 110 101 106 88 44
92 79 71 69 66 58 54 52 45 43 47 59 72 48 35 40 303 1 335 350 0 97 100 76 103 122 39 356 57 0 344 354 21 30 30 30 46 26 342 43 50 30 56 8 48 132 97 69 100 313 331 358 105 122 176 148 215 318 267 221 221 125 104 86 81 106 115 108 96 86 84 95 113 89 65 140 193 142 102 102 14 62 110 88 98 137 145
97 77 73 73 70 65 68 68 62 56 53 50 64 147 177 207 259 310 319 334 20 57 71 101 54 11 155 27 314 289 335 338 12 14 19 1 21 1 28 47 57 355 69 91 151 60 41 28 82 209 97 303 72 101 76 97 158 237 213 160 47 128 121 110 99 94 102 122 113 85 72 120 185 140 167 200 176 161 146 147 156 110 106 117 80 87 161
101 87 84 84 84 83 82 76 73 71 83 85 70 55 28 10 353 356 331 357 51 57 106 81 111 159 68 242 338 338 319 3 18 12 25 355 21 353 27 359 16 35 336 57 353 118 313 84 230 60 267 40 93 118 117 176 213 227 182 154 142 131 102 103 107 109 125 154 101 132 157 158 176 162 131 141 130 136 140 145 166 140 120 134 46 29 20
25 103 94 103 100 93 76 63 57 63 39 34 13 357 334 1 5 3 16 72 96 60 73 103 83 82 173 336 73 285 56 99 344 17 56 359 308 35 357 30 329 61 330 94 262 63 315 77 82 178 23 357 64 72 261 252 244 156 124 121 140 118 120 110 110 107 89 63 64 98 116 125 118 115 113 125 118 100 126 139 162 149 170 96 79 82 297
16 16 112 113 108 81 60 58 41 48 90 69 17 282 305 8 22 11 27 96 68 350 32 15 105 83 49 25 77 280 105 70 54 329 104 316 19 92 2 68 330 76 293 78 34 110 96 255 194 77 215 117 59 222 240 175 148 128 133 133 165 127 102 89 65 92 74 91 98 98 107 114 104 112 145 154 117 140 110 61 45 46 26 359 351 72 64
2 354 59 100 83 59 31 33 42 34 21 26 226 273 1 349 17 18 27 58 106 147 82 216 74 127 135 132 142 256 80 45 293 30 356 122 8 356 74 121 57 287 34 61 181 31 146 267 77 254 144 114 220 161 205 169 168 176 172 162 174 153 160 157 148 107 62 74 112 122 132 134 139 172 158 176 126 78 59 67 37 58 79 344 310 324 7
337 353 63 60 39 41 31 240 294 103 202 203 210 31 11 2 349 35 12 24 359 81 113 125 67 74 152 193 117 290 84 137 245 39 352 72 163 349 40 42 151 154 48 7 32 128 244 41 108 185 210 181 241 198 175 175 174 176 164 151 161 124 99 115 133 123 99 83 85 89 116 121 85 61 129 176 129 90 97 227 214 170 240 258 280 320 353
175 36 49 37 42 43 3 320 281 238 125 56 9 32 354 32 47 349 9 26 293 51 350 61 87 266 357 76 105 247 84 272 60 126 350 256 60 318 271 101 227 91 82 187 231 181 66 40 182 185 267 264 305 18 233 199 185 102 135 162 166 155 138 135 135 122 118 97 89 94 46 51 210 275 180 215 179 177 212 220 172 186 331 296 273 301 326
103 53 40 33 95 128 177 237 234 110 81 355 50 64 346 14 57 18 301 285 18 9 294 89 222 130 93 61 350 331 144 166 78 28 122 259 102 307 61 82 287 80 300 29 294 111 3 318 1 47 261 239 118 229 226 195 297 226 174 173 150 148 145 150 156 147 158 175 184 187 172 175 191 216 216 220 232 240 285 310 300 275 222 246 275 306 320
12 77 126 78 113 237 255 344 71 107 44 58 329 96 53 343 88 261 301 46 340 299 27 12 210 113 122 143 127 26 318 70 104 112 165 13 357 140 244 79 270 86 244 125 241 64 137 202 275 77 277 187 207 239 180 177 151 222 108 109 125 152 159 166 177 15 65 65 82 112 96 133 158 164 174 196 189 190 228 245 254 240 204 237 261 230 258
24 53 50 119 242 279 309 312 6 52 62 28 13 3 70 5 328 227 53 51 46 243 223 159 18 39 351 65 57 120 301 71 310 91 107 105 243 87 48 161 240 83 273 189 274 75 82 65 329 182 246 246 198 159 176 151 163 134 51 23 30 44 58 62 54 21 71 84 64 54 46 60 65 63 66 128 151 155 115 99 80 59 70 48 29 344 326
215 174 185 141 94 83 23 24 54 51 18 108 109 303 207 216 354 17 86 124 238 237 326 88 357 145 254 196 187 134 337 181 106 64 91 61 311 123 210 357 7 116 200 212 107 56 85 130 255 282 260 251 250 151 140 172 190 89 33 9 18 18 50 80 72 40 38 79 78 66 50 60 56 48 28 45 83 87 78 72 58 44 37 341 344 360 11
104 87 71 75 35 13 92 40 315 100 103 13 45 14 349 49 220 154 262 287 297 90 252 50 223 171 334 49 13 96 166 306 37 332 73 168 335 52 83 28 64 58 240 3 79 187 130 220 220 249 238 219 286 243 228 42 71 74 58 35 31 19 46 70 78 75 47 54 54 53 44 55 53 34 26 39 53 58 51 69 67 38 10 8 1 7 10
54 44 46 347 67 303 82 10 271 54 356 23 107 187 230 36 315 39 41 267 249 8 257 123 223 122 192 312 126 352 17 358 67 81 45 305 71 323 62 61 208 243 38 29 331 171 218 208 200 216 204 319 350 5 1 8 32 74 66 38 31 29 40 58 55 61 45 35 42 36 45 43 33 24 26 37 45 58 27 39 29 22 13 20 18 358 353
90 27 41 43 60 243 69 303 347 115 193 246 149 194 154 171 220 162 173 242 97 217 265 79 86 90 135 269 52 345 97 202 304 96 244 80 55 317 99 242 256 33 91 212 266 299 345 296 300 15 6 52 353 354 353 356 1 10 33 42 29 23 29 44 40 47 45 39 23 23 43 27 31 25 24 26 30 46 60 37 351 5 360 2 351 356 357
84 142 117 106 101 311 120 159 65 54 296 143 201 193 161 221 162 202 244 92 117 159 118 164 93 89 54 298 124 217 22 72 52 295 171 55 103 271 242 262 58 69 319 53 113 207 215 212 150 193 319 334 335 338 351 352 357 354 44 53 5 23 26 37 37 44 36 29 22 40 35 29 25 18 7 359 10 24 38 17 6 3 344 359 356 350 331
48 15 97 85 97 271 81 139 220 202 180 200 219 166 166 183 196 197 204 98 121 177 98 68 95 142 124 85 52 357 37 43 112 262 68 46 192 247 13 80 286 228 148 248 229 243 268 259 210 54 326 327 329 344 355 9 14 29 40 41 30 22 18 27 29 35 19 27 28 33 30 24 10 348 354 1 346 355 1 6 351 344 351 318 311 324 323
100 232 80 93 190 152 134 238 189 39 339 177 233 192 220 165 88 86 327 142 146 131 116 104 75 348 31 298 84 157 314 337 74 309 140 201 44 42 2 41 311 254 180 169 232 225 220 252 149 26 327 354 332 333 347 3 8 18 17 24 20 18 8 9 10 10 14 19 18 14 14 6 2 346 338 317 324 311 323 347 324 321 322 320 321 319 317
117 109 128 144 133 113 188 309 100 127 301 318 263 123 113 118 162 159 301 47 121 141 159 109 166 85 44 292 74 11 31 311 91 258 36 30 98 207 162 182 232 304 267 177 225 230 228 158 161 190 219 326 331 334 307 316 340 349 2 7 0 358 355 349 344 345 356 359 356 2 352 340 345 323 334 324 304 283 304 313 298 301 294 282 296 306 307
64 337 34 60 47 339 243 45 78 318 312 342 67 129 113 99 132 238 255 91 119 112 82 74 63 92 225 88 16 10 249 310 155 297 62 307 213 182 66 7 244 184 258 248 237 248 228 226 182 181 203 203 207 193 286 294 318 334 328 332 336 341 342 336 337 337 345 342 342 341 339 346 327 324 314 298 288 297 301 289 259 266 313 297 283 290 293
332 93 125 336 113 225 119 155 174 207 254 231 197 205 165 176 165 177 271 129 131 76 50 120 187 97 74 30 52 58 266 196 50 59 158 194 214 91 151 189 235 206 230 232 171 184 183 194 181 183 153 239 259 289 319 310 317 301 318 329 313 322 318 334 325 334 337 333 328 334 329 314 292 289 285 291 288 281 281 290 203 320 303 304 289 272 280
52 44 339 359 44 55 18 279 50 104 186 219 132 271 102 151 273 250 324 114 124 126 172 221 83 72 64 156 215 196 356 43 137 50 24 282 157 133 215 198 221 220 207 196 208 203 174 180 165 176 184 191 224 248 284 323 318 311 312 316 326 328 327 323 329 320 307 311 303 293 289 291 301 291 273 269 278 302 329 307 309 326 313 299 287 281 264